Location: Kumla
(59.1265°N, 15.1401°E)
Time: 09:20:33
(UTC+01:00)

Transit 2A - Pass Details

Date: 10 December 2023
Orbit: 600 x 953 km, 66.7° (Epoch: 22 February)

Event Time Altitude Azimuth Distance (km) Brightness Sun altitude
Rises 19:59:49 0° 302° (WNW) 2,924 9.9 -35.7°
Reaches altitude 10° 20:02:15 10° 310° (NW) 1,986 8.8 -36.0°
Enters shadow 20:03:03 15° 315° (NW) 1,697 8.3 -36.1°
Maximum altitude 20:06:25 39° 20° (NNE) 908 - -36.6°
Drops below altitude 10° 20:10:31 10° 91° (E) 1,952 - -37.1°
Sets 20:12:53 0° 99° (E) 2,867 - -37.3°
